Probability
10 10 9 7 7 8 8 7 4 3 4 5 6 7 7 6 6 7 7 7 6 6 6 5 5 5 4 3 2 2 2 2 3 2 1 0 0 0 0 0 0 0 0
9 8 7 5 5 5 6 5 4 3 3 4 5 6 6 6 6 7 9 9 8 7 6 5 4 3 2 1 1 1 1 1 2 1 0 0 0 0 0 0 0 0 0
9 7 5 4 3 3 4 3 3 3 3 3 4 5 6 6 7 9 10 11 10 7 5 4 2 1 0 0 0 0 0 0 0 0 0 0 0 0 0 0 0 0 0
9 6 3 2 3 3 3 4 4 3 3 3 5 7 8 8 8 9 10 11 9 7 5 4 2 0 0 0 0 0 0 0 0 0 0 0 0 0 0 0 0 0 0
9 7 4 2 2 3 4 4 5 5 4 4 6 8 9 9 9 8 9 9 8 6 5 4 2 1 0 0 0 0 0 0 0 0 0 0 0 0 0 0 0 0 0
9 7 5 3 3 3 4 5 6 6 6 6 6 7 8 8 7 5 6 8 8 7 5 4 3 1 0 0 0 0 0 0 0 0 0 0 0 0 0 0 0 0 0
7 7 6 5 4 4 4 6 7 8 7 6 6 6 7 7 5 2 3 6 8 7 6 4 3 2 0 0 0 0 0 0 0 0 0 0 0 0 0 1 1 0 0
7 7 7 6 5 5 5 6 8 9 8 6 5 5 6 5 3 1 1 4 5 5 6 6 5 4 2 0 0 0 0 0 0 0 0 0 0 0 0 1 1 0 0
9 8 8 7 6 5 5 6 8 8 6 4 3 4 4 3 1 0 1 3 4 5 5 6 5 4 2 0 1 1 1 1 1 1 0 0 0 0 0 1 1 0 0
10 9 8 7 6 5 4 5 6 6 4 2 2 2 1 1 0 0 1 3 5 5 6 5 4 2 1 0 1 2 3 2 2 2 1 1 1 0 0 0 0 0 1
10 9 8 7 6 5 4 4 4 4 3 2 2 2 1 0 0 0 1 2 4 6 6 5 3 1 0 0 1 2 2 2 3 3 3 2 2 1 1 1 0 0 1
9 9 8 7 5 4 4 3 3 3 3 3 2 1 0 0 0 0 0 1 2 4 5 4 3 1 0 0 0 1 1 1 1 3 3 3 3 3 2 2 1 0 1
7 7 7 7 5 3 3 2 2 1 1 1 1 1 0 0 0 0 0 0 0 1 2 2 1 1 0 0 0 0 0 0 1 2 3 3 3 3 3 2 1 0 0
6 6 7 7 5 3 2 1 1 0 0 0 0 0 1 1 1 1 0 0 0 0 0 0 0 0 0 0 0 0 0 0 1 2 3 3 3 3 2 1 0 0 0
6 6 6 6 5 4 2 1 0 0 0 0 0 1 2 2 2 1 0 0 0 0 0 0 0 0 0 1 1 1 1 1 0 1 1 2 3 3 1 0 0 1 1
6 6 6 5 4 3 3 2 1 0 0 0 0 1 2 1 1 0 0 0 0 0 0 0 0 0 0 1 2 2 2 2 1 1 0 1 2 2 1 0 0 0 0
6 6 5 4 3 3 3 3 2 1 0 0 0 1 1 0 0 0 0 0 0 0 0 0 0 0 0 1 2 2 2 2 2 1 0 0 1 1 0 0 0 0 0
5 4 4 3 3 3 3 3 3 2 1 0 0 0 0 0 0 0 0 0 0 0 0 0 0 0 0 0 1 1 1 1 1 1 0 0 0 0 0 0 0 0 0
4 3 3 3 3 3 3 3 3 3 2 1 0 0 0 0 0 0 0 0 0 0 0 0 0 0 0 0 0 0 0 0 0 0 0 0 0 0 0 0 0 0 0
3 3 3 3 3 3 3 3 3 3 3 2 1 0 0 0 0 0 0 0 0 0 0 0 0 0 0 0 0 0 0 0 0 0 0 0 0 0 0 0 0 0 0
3 3 3 3 3 3 3 3 3 3 3 3 2 1 0 0 0 0 0 0 0 0 0 0 0 0 0 0 0 0 0 0 0 0 0 0 0 0 0 0 0 0 0
3 2 3 3 3 3 3 3 3 3 3 3 2 1 0 0 0 0 0 0 0 0 0 0 0 0 0 0 0 0 0 0 0 0 0 0 0 0 0 0 0 0 0
3 2 2 2 2 3 3 3 3 3 3 3 1 0 0 0 0 0 0 0 0 0 0 0 0 0 0 0 0 0 0 0 0 0 0 0 0 0 0 0 0 0 0
2 1 1 1 1 1 2 2 2 2 2 2 1 0 0 0 0 0 0 0 0 0 0 0 0 0 0 0 0 0 0 0 0 0 0 0 0 0 0 0 0 0 0
1 0 0 0 0 0 1 1 1 1 1 1 1 1 0 0 0 0 0 0 0 0 0 0 0 0 0 0 0 0 0 0 0 0 0 0 0 0 0 0 0 0 0
0 0 0 0 0 0 0 0 0 1 2 2 2 2 1 0 0 0 0 0 0 0 0 0 0 0 0 0 0 0 0 0 0 0 0 0 0 0 0 0 0 0 0
Wind_Speed
4 4 4 3 3 3 3 3 3 2 2 3 3 3 3 3 3 3 2 3 2 2 2 2 3 3 2 2 2 2 2 2 3 2 2 1 1 2 2 1 1 1 2
4 4 4 3 3 3 3 3 2 2 2 3 3 4 4 3 3 3 3 3 3 3 3 3 3 2 3 2 2 2 2 3 3 3 2 1 1 1 1 2 2 1 2
4 4 3 3 3 4 3 3 3 3 3 3 3 4 4 4 4 4 4 4 4 4 4 4 4 3 3 3 3 3 2 2 2 2 2 1 1 1 1 1 2 2 2
4 4 3 3 3 3 3 3 3 3 3 3 4 4 4 4 4 4 4 4 4 4 4 4 4 4 4 4 3 3 3 2 2 2 2 1 1 1 1 1 1 1 2
3 3 3 3 2 2 2 3 3 3 3 3 3 4 4 4 4 4 4 4 4 4 3 4 4 4 5 4 3 3 3 2 2 2 2 1 2 1 1 1 1 1 2
3 3 3 2 2 2 2 2 2 3 3 2 3 4 4 3 4 5 4 3 4 4 4 3 3 4 4 4 4 5 5 5 4 3 3 3 3 3 2 2 1 1 2
2 2 3 3 3 3 3 2 2 3 3 3 3 3 3 3 4 4 4 3 4 4 4 3 3 2 3 3 3 4 4 5 7 5 5 5 4 4 3 2 2 2 3
2 2 2 2 2 2 2 2 3 2 2 3 3 3 3 3 4 5 5 4 3 3 3 4 3 3 3 2 2 2 3 3 5 5 5 5 5 4 4 3 3 2 2
1 2 2 3 2 2 2 2 2 2 2 2 2 2 2 2 4 4 4 2 2 3 3 3 3 3 3 3 2 2 2 2 2 3 4 4 4 4 3 2 2 2 2
2 2 2 2 3 3 2 2 1 1 2 2 2 2 2 2 3 4 3 2 2 2 2 2 3 3 3 4 3 3 4 3 2 1 1 2 2 3 5 5 4 3 2
2 1 1 2 2 2 1 1 1 1 0 1 1 1 2 2 3 4 4 2 3 2 2 2 2 3 3 4 4 4 5 4 2 2 2 2 2 2 3 3 4 4 4
1 2 1 1 1 1 1 1 1 1 1 1 1 1 1 1 2 3 4 4 3 3 3 3 2 3 3 3 3 3 3 2 2 2 2 2 2 2 2 3 4 4 4
2 2 1 1 0 1 2 2 2 2 2 2 1 2 2 2 2 3 4 5 4 3 3 3 3 3 2 2 3 3 2 2 2 2 2 2 2 2 2 1 2 2 3
2 2 1 1 0 0 1 1 2 2 2 2 2 2 2 2 2 1 2 2 2 2 2 2 2 2 2 1 1 2 2 2 3 3 2 2 1 1 2 2 2 1 1
2 2 1 1 1 1 1 1 2 2 3 3 3 3 2 3 3 3 2 2 2 2 2 1 1 1 0 1 1 1 1 2 2 2 2 2 2 2 2 1 1 1 2
2 2 1 1 1 1 1 1 1 1 2 3 3 3 3 3 2 2 3 3 3 4 3 1 1 1 1 2 2 1 1 2 2 2 2 2 2 2 2 1 1 2 2
3 3 2 1 1 1 1 1 1 2 1 1 1 2 2 1 1 1 1 1 2 4 2 1 2 2 2 2 2 2 2 2 2 2 2 2 2 2 2 2 2 2 2
3 3 2 2 2 2 2 2 1 1 1 2 2 1 1 1 1 1 1 3 2 1 1 1 2 2 2 2 2 2 2 2 2 2 2 2 2 2 2 2 2 2 2
3 2 2 2 2 2 1 1 1 1 1 1 1 1 1 1 1 1 2 2 1 1 1 2 2 2 2 2 2 2 2 2 2 2 2 2 2 2 2 2 2 2 2
2 2 2 2 2 1 1 1 1 1 1 1 1 1 1 1 1 1 1 1 1 1 2 2 2 2 2 2 2 2 2 2 2 2 2 2 2 2 2 2 2 2 2
2 2 2 2 2 2 1 1 1 1 1 1 1 1 1 1 1 1 1 2 2 2 2 2 2 2 2 2 2 2 3 2 2 2 2 2 2 2 2 2 2 2 2
2 2 2 2 1 1 1 2 1 1 1 1 1 1 1 1 1 1 2 2 2 3 3 2 2 2 2 2 2 2 3 3 3 3 3 3 2 2 2 2 2 2 2
2 2 2 1 2 1 1 1 1 1 1 1 1 1 1 1 1 2 2 3 2 2 2 2 2 3 2 2 2 3 3 3 3 3 3 3 3 3 2 3 3 2 2
1 2 2 1 1 1 1 1 1 1 1 1 1 1 1 2 2 2 2 2 2 2 2 2 2 3 3 2 2 2 3 3 3 2 3 3 3 2 2 2 2 2 2
1 1 1 1 1 1 1 1 1 2 2 2 2 2 2 2 2 2 2 2 2 2 3 2 2 3 3 3 3 2 2 2 2 2 2 2 2 2 2 2 2 2 2
1 0 1 1 1 1 1 1 2 2 2 2 2 2 2 2 2 2 2 2 2 3 3 2 3 3 3 3 3 2 2 1 2 1 1 2 2 2 2 2 2 2 2
Wind_Direction
176 174 171 181 180 173 176 189 177 175 176 179 179 177 180 183 180 176 186 185 189 219 229 218 230 217 205 208 196 193 202 201 228 262 260 275 282 306 320 306 280 269 269
174 164 175 179 175 176 182 184 173 177 191 193 185 182 189 190 187 185 202 202 197 211 228 229 238 219 205 205 193 200 207 206 210 242 261 277 273 285 307 312 309 286 263
158 155 165 180 184 187 192 187 181 191 200 198 189 192 200 202 198 199 202 207 206 213 219 220 226 209 213 211 203 202 206 202 204 216 250 267 267 283 307 312 320 316 297
147 152 167 191 202 200 191 189 189 196 206 205 207 208 208 208 205 201 202 205 207 221 225 222 223 214 215 209 208 207 197 188 190 205 234 257 260 263 241 271 308 323 313
146 159 184 192 196 193 196 202 196 198 216 216 214 221 216 211 211 204 203 201 205 218 230 229 228 224 216 207 203 199 189 192 192 208 229 237 242 229 235 240 261 297 303
154 177 178 174 176 184 201 209 206 208 219 222 221 220 218 224 215 203 197 201 208 212 224 234 238 238 234 220 215 209 197 197 204 210 222 229 241 233 226 223 236 261 283
156 171 172 176 184 195 199 194 211 220 221 227 229 213 218 225 212 206 206 202 209 215 220 227 233 235 220 220 224 228 227 219 207 205 214 227 228 221 205 220 234 236 245
162 170 174 176 189 188 179 203 220 223 222 228 233 221 218 225 212 208 207 205 211 222 221 220 224 238 230 215 215 228 243 241 225 217 221 231 231 223 209 210 218 243 260
192 205 195 184 184 185 193 225 232 218 223 233 227 215 214 237 218 207 196 199 210 230 233 226 222 228 236 207 196 219 250 265 242 213 215 228 228 223 207 188 203 226 261
224 216 199 188 189 202 212 228 231 208 226 224 227 221 216 232 218 201 189 196 211 228 242 242 229 228 228 201 199 202 222 237 237 236 238 248 236 225 215 216 213 216 234
222 182 169 182 192 206 207 215 190 170 178 224 231 242 230 226 220 208 197 202 211 217 231 248 247 232 229 215 203 206 220 223 214 217 236 250 246 236 229 222 221 216 219
178 160 165 168 186 182 191 199 177 154 153 241 250 277 276 253 228 222 214 215 210 211 229 242 245 223 219 223 212 214 216 200 193 198 220 238 244 245 243 233 226 227 234
155 160 177 163 176 195 200 197 184 172 182 211 223 248 266 261 246 234 229 231 228 223 233 232 234 222 209 210 210 207 191 189 194 206 226 242 252 255 254 250 235 227 238
170 176 183 174 203 217 205 194 188 193 199 211 219 233 256 264 257 248 243 243 234 222 213 205 213 204 191 204 211 209 209 209 208 221 234 246 256 252 241 228 227 217 228
177 175 174 185 198 220 218 208 213 220 213 210 222 218 220 250 263 252 225 221 216 206 176 156 129 123 171 240 249 236 220 213 218 233 229 237 239 245 248 234 213 197 211
180 184 180 184 203 219 236 283 309 278 253 227 220 214 227 234 257 259 243 227 204 168 143 157 185 201 216 239 248 260 247 234 225 221 222 229 234 236 239 227 204 201 220
182 187 187 189 193 212 231 243 287 333 345 265 247 226 224 236 234 239 222 199 174 153 150 187 203 223 233 243 241 241 250 255 231 217 219 222 224 225 222 224 214 218 233
182 188 189 201 203 214 223 229 233 251 314 327 322 287 251 236 244 220 140 106 89 115 201 215 223 235 234 236 244 251 258 256 228 229 233 230 219 216 218 228 225 228 239
188 196 198 201 199 204 218 220 220 223 240 289 352 351 338 339 19 58 121 129 177 208 231 235 234 236 237 239 247 251 253 251 240 227 229 229 225 219 229 237 234 229 235
204 214 198 185 177 181 194 209 217 224 231 244 266 283 11 64 57 39 166 215 232 245 249 252 250 241 235 239 245 249 255 257 253 234 230 228 222 217 222 227 230 231 235
196 200 196 175 175 187 194 209 214 214 226 239 255 260 204 196 219 233 229 238 244 251 253 253 252 251 247 248 247 243 242 248 248 244 237 233 225 222 227 227 229 234 243
186 174 166 171 178 190 204 211 213 217 231 245 282 294 206 217 242 249 253 256 255 254 252 248 245 243 240 242 241 244 249 250 246 242 241 237 229 227 225 225 226 229 237
173 162 158 170 176 180 190 207 210 217 237 258 270 277 252 255 262 266 271 272 271 271 268 259 259 263 259 251 245 241 245 250 250 245 241 237 227 220 217 223 231 238 243
134 143 148 158 170 187 206 221 226 231 240 252 256 254 257 262 270 277 280 282 282 282 281 276 271 271 271 267 255 250 257 260 253 241 235 236 232 223 214 216 226 246 251
101 120 140 157 178 201 213 233 251 255 250 252 256 261 268 273 279 286 292 295 291 285 282 279 281 275 270 272 280 281 279 270 265 258 230 224 231 228 217 212 217 231 245
77 107 143 140 158 205 208 223 246 254 255 257 263 272 280 283 283 285 293 297 293 288 287 282 286 283 283 282 293 303 306 299 294 280 252 231 226 229 224 221 222 224 226